Vorticity
4 4 4 5 6 5 6 7 7 4 6 10 14 2 4 3 11 -3 1 5 2 5 7 10 7 8 11 8 14 19 11 -3 7 6 2 1 3 6 5 3 17 12 10 -1 4
4 4 4 4 5 5 6 7 8 5 5 11 11 7 8 2 14 -10 5 3 4 6 7 3 7 9 10 7 9 19 14 4 11 6 1 4 8 -1 6 9 11 3 4 10 23
4 5 5 4 5 6 6 6 8 7 4 9 11 5 7 4 15 -9 3 4 5 6 6 9 9 10 12 9 7 10 5 5 6 6 3 5 11 9 8 2 -7 13 12 15 18
6 5 5 4 4 6 6 5 7 8 5 7 12 7 7 5 9 3 4 4 5 5 11 8 7 12 12 10 10 20 4 5 7 -1 4 5 16 -2 3 -8 13 19 27 20 20
5 6 5 5 4 5 7 6 6 8 7 7 12 12 4 4 -1 3 4 4 4 7 6 9 8 15 11 15 13 5 7 12 9 11 8 8 7 13 -9 -18 2 27 26 16 7
6 6 6 5 4 4 6 6 7 7 7 7 12 11 6 5 1 3 5 4 6 8 8 8 6 10 11 19 11 2 12 14 -3 2 -9 13 11 4 -14 18 24 19 22 12 8
11 6 7 6 5 5 5 6 6 6 8 8 10 6 10 7 -1 5 5 4 6 8 8 8 9 9 11 23 7 6 1 11 21 -14 -10 19 13 -6 11 24 16 23 16 14 14
3 10 8 7 5 5 5 5 7 8 9 13 6 7 9 12 -1 4 6 5 7 8 10 10 2 7 13 10 12 -11 -1 2 12 8 5 12 -6 -7 -22 15 14 20 20 14 16
0 7 6 7 7 5 6 5 5 5 9 14 -2 19 20 8 1 2 5 6 8 9 7 9 8 -2 12 36 11 33 -2 7 15 6 8 12 11 -12 -8 13 17 17 14 32 17
36 -3 6 8 7 5 7 5 3 6 18 -6 20 7 5 3 4 4 5 7 8 5 9 14 -2 6 13 5 2 -7 3 9 8 6 10 15 13 11 -8 19 14 18 18 22 37
2 0 1 5 2 4 6 5 7 20 -4 5 3 10 14 10 8 7 5 8 8 9 12 12 -3 3 12 6 4 13 17 7 2 24 11 1 19 -4 -18 18 15 18 21 22 16
8 8 -7 3 10 6 4 4 2 -5 2 1 9 10 15 12 4 6 2 12 11 6 12 9 -18 3 15 12 1 21 16 3 47 -22 -1 4 15 0 -24 9 11 19 20 23 0
27 30 30 -1 3 4 10 7 6 8 3 10 24 20 12 11 5 7 4 10 7 6 14 0 -0 4 14 8 3 36 0 -11 22 14 25 8 43 -4 -24 6 13 20 12 14 23
9 5 9 18 1 3 0 0 6 10 28 21 19 17 23 6 21 3 7 11 8 6 18 8 -6 8 9 14 4 36 -2 31 18 8 6 -11 7 -25 -18 3 10 22 12 13 18
0 13 7 32 -1 -8 -9 9 2 -2 23 3 20 10 7 6 2 1 4 10 8 9 12 -7 -7 18 5 14 10 -20 19 25 11 13 9 -16 32 -23 -16 1 8 17 18 9 13
7 -1 12 15 4 14 5 20 6 39 11 3 5 8 10 7 6 5 1 9 11 15 9 18 -4 20 -0 18 7 5 28 29 19 6 20 -0 17 -33 -5 1 9 12 23 12 13
17 3 18 9 9 11 22 -16 26 14 8 11 17 13 3 6 8 7 4 5 14 23 5 18 1 8 -4 13 3 5 43 -3 16 13 7 -6 23 -1 -19 4 9 7 20 17 7
7 13 -18 5 -1 6 33 35 20 12 -2 -4 -16 5 12 6 13 6 5 8 5 9 13 4 11 5 6 5 26 4 18 27 9 8 -16 64 7 -7 -33 4 7 6 15 27 11
6 22 9 4 7 -3 24 16 -21 -3 11 12 13 5 3 23 2 9 5 8 2 7 23 6 7 -5 9 3 16 9 11 8 14 19 12 9 7 -3 -30 2 3 6 9 26 17
17 8 3 8 12 7 15 -8 -12 0 -13 16 14 2 -0 8 8 9 12 5 4 8 6 8 17 -0 12 9 -3 9 20 8 5 9 16 -13 15 -26 6 9 4 7 6 14 22
9 19 -1 14 9 21 5 4 10 7 17 43 23 -6 3 3 9 6 8 9 1 7 8 14 -3 -1 11 1 3 13 13 23 13 9 9 9 -1 -8 -3 6 8 8 6 7 19
5 14 6 10 9 5 7 5 19 -1 12 20 16 3 6 15 8 8 3 5 6 7 9 8 6 14 5 9 1 6 1 12 17 -6 17 5 4 2 -6 8 11 9 6 6 11
-2 13 4 1 -6 11 14 -1 6 12 11 28 11 8 12 2 7 11 7 6 5 8 6 9 -0 14 17 6 -4 8 4 6 14 18 17 9 4 -48 5 9 11 10 6 6 7
29 -17 23 9 1 5 17 2 11 5 5 23 16 9 2 14 6 7 6 11 4 9 7 9 7 5 2 -7 1 7 6 8 11 15 -6 -1 1 3 13 8 10 7 8 7 7
37 -3 10 -21 11 27 28 -3 -3 4 4 21 24 6 6 7 6 7 9 5 8 9 6 6 12 6 7 10 12 5 10 8 9 12 8 -18 3 7 3 3 6 10 10 8 6
-2 18 -6 5 2 24 4 5 1 15 12 20 15 9 2 3 4 -8 14 7 14 14 8 7 2 5 19 19 6 -2 18 6 7 13 10 7 1 13 -8 5 7 13 8 10 5
8 10 25 1 -0 4 6 10 12 11 19 17 22 9 10 10 8 -4 10 7 1 8 9 7 6 6 12 -3 12 39 13 8 6 11 8 10 14 15 14 7 6 11 7 13 5
Height
3138 3136 3134 3132 3129 3126 3124 3122 3120 3118 3116 3113 3111 3110 3108 3107 3105 3103 3100 3098 3093 3089 3085 3080 3077 3072 3067 3065 3062 3060 3062 3062 3060 3057 3054 3051 3048 3046 3041 3035 3031 3027 3021 3015 3012
3137 3136 3134 3132 3129 3126 3123 3121 3118 3116 3115 3112 3110 3109 3107 3105 3103 3101 3099 3094 3091 3087 3084 3081 3076 3072 3068 3064 3062 3062 3062 3059 3057 3055 3052 3049 3046 3040 3035 3031 3023 3018 3014 3008 3003
3136 3134 3133 3132 3129 3125 3123 3120 3117 3115 3113 3110 3108 3107 3106 3104 3102 3099 3097 3094 3091 3086 3082 3078 3075 3072 3067 3064 3061 3059 3059 3057 3055 3053 3048 3045 3042 3037 3030 3025 3019 3007 2999 2997 2993
3135 3133 3131 3129 3127 3125 3122 3119 3116 3114 3111 3110 3107 3105 3104 3103 3103 3098 3096 3093 3089 3085 3080 3078 3076 3071 3066 3063 3060 3058 3057 3055 3053 3049 3046 3042 3038 3034 3029 3024 3016 3005 2994 2988 2986
3132 3131 3130 3128 3126 3123 3121 3118 3116 3112 3110 3109 3106 3104 3103 3102 3100 3097 3094 3091 3088 3082 3079 3077 3073 3069 3065 3061 3058 3055 3056 3053 3051 3048 3046 3041 3037 3033 3026 3020 3010 2999 2990 2985 2981
3128 3127 3127 3126 3124 3121 3119 3117 3114 3112 3109 3106 3104 3103 3102 3101 3098 3096 3093 3090 3086 3081 3078 3075 3071 3067 3063 3060 3057 3056 3053 3051 3050 3047 3042 3040 3035 3030 3026 3017 3005 2994 2987 2982 2978
3124 3124 3124 3123 3121 3119 3117 3115 3113 3110 3107 3104 3102 3100 3099 3099 3096 3094 3092 3088 3084 3080 3077 3074 3070 3068 3063 3058 3056 3054 3052 3050 3049 3045 3044 3041 3035 3031 3024 3013 3001 2992 2986 2980 2975
3122 3121 3120 3120 3119 3117 3115 3112 3110 3108 3105 3102 3101 3098 3096 3095 3094 3092 3089 3086 3083 3079 3076 3073 3070 3064 3060 3057 3053 3052 3053 3053 3051 3045 3042 3040 3035 3028 3019 3011 3001 2991 2984 2977 2972
3118 3118 3118 3117 3116 3114 3113 3110 3107 3106 3103 3100 3099 3097 3095 3093 3092 3090 3087 3084 3081 3077 3074 3072 3066 3064 3063 3059 3056 3056 3051 3052 3048 3044 3040 3037 3034 3026 3020 3013 3000 2991 2983 2974 2969
3111 3113 3114 3114 3113 3111 3109 3108 3104 3103 3100 3097 3095 3098 3094 3092 3090 3089 3086 3083 3080 3076 3072 3070 3069 3066 3060 3055 3056 3053 3050 3050 3048 3047 3042 3038 3035 3028 3022 3013 3001 2991 2982 2974 2969
3107 3107 3108 3109 3109 3107 3108 3105 3105 3102 3097 3094 3095 3092 3090 3089 3088 3087 3084 3081 3078 3073 3072 3070 3068 3063 3059 3057 3054 3051 3049 3047 3043 3043 3038 3037 3033 3028 3024 3012 3002 2992 2982 2976 2971
3103 3101 3102 3102 3104 3104 3102 3100 3099 3098 3093 3091 3090 3087 3087 3086 3086 3085 3084 3081 3077 3075 3072 3071 3067 3064 3059 3057 3052 3048 3046 3044 3041 3038 3038 3035 3032 3028 3025 3014 3003 2993 2985 2976 2972
3098 3097 3096 3097 3097 3098 3097 3097 3095 3094 3092 3088 3084 3083 3084 3085 3084 3083 3082 3078 3075 3073 3071 3069 3068 3063 3060 3056 3052 3047 3044 3041 3039 3034 3036 3034 3031 3029 3026 3019 3008 2997 2988 2980 2975
3094 3094 3093 3093 3096 3092 3093 3093 3093 3091 3089 3085 3081 3080 3081 3082 3082 3081 3079 3079 3074 3073 3070 3068 3066 3063 3060 3056 3051 3046 3044 3038 3035 3035 3036 3032 3033 3028 3025 3018 3006 2997 2988 2982 2977
3091 3090 3089 3089 3089 3089 3091 3090 3089 3089 3088 3083 3080 3079 3079 3082 3081 3079 3078 3075 3073 3071 3071 3069 3066 3062 3059 3053 3050 3046 3039 3035 3034 3033 3034 3032 3030 3029 3025 3011 3005 2998 2991 2985 2980
3087 3086 3086 3086 3085 3086 3085 3086 3086 3090 3082 3080 3079 3078 3078 3079 3078 3077 3077 3075 3072 3070 3068 3067 3065 3061 3057 3053 3050 3045 3038 3033 3033 3033 3033 3032 3032 3031 3024 3020 3013 3005 2996 2989 2984
3082 3082 3082 3081 3082 3081 3081 3082 3084 3082 3080 3079 3077 3077 3077 3076 3076 3076 3075 3074 3073 3070 3067 3067 3065 3061 3060 3057 3051 3046 3038 3036 3039 3036 3035 3031 3032 3036 3033 3026 3016 3007 3000 2993 2987
3078 3077 3077 3078 3077 3077 3077 3079 3077 3075 3075 3074 3075 3076 3075 3075 3074 3074 3074 3072 3073 3070 3067 3066 3064 3063 3060 3058 3053 3049 3047 3049 3058 3049 3038 3030 3034 3037 3034 3030 3022 3014 3007 2998 2991
3072 3072 3073 3073 3072 3072 3075 3074 3072 3071 3071 3071 3072 3073 3074 3073 3074 3071 3071 3071 3071 3070 3070 3066 3065 3062 3060 3060 3057 3053 3051 3052 3051 3046 3043 3033 3033 3033 3033 3030 3022 3014 3008 3001 2993
3066 3066 3067 3068 3068 3069 3070 3069 3068 3067 3067 3066 3066 3069 3069 3069 3071 3069 3068 3070 3069 3070 3069 3066 3065 3062 3061 3059 3058 3055 3055 3054 3054 3056 3053 3034 3034 3036 3029 3025 3021 3014 3007 3003 2997
3059 3060 3062 3063 3064 3064 3063 3063 3064 3063 3062 3063 3062 3063 3066 3065 3067 3067 3066 3068 3067 3068 3068 3065 3065 3064 3061 3061 3058 3057 3055 3055 3056 3056 3056 3048 3040 3036 3034 3029 3024 3019 3011 3005 3000
3053 3055 3057 3058 3060 3058 3058 3059 3060 3059 3058 3058 3059 3061 3062 3063 3063 3065 3063 3065 3065 3066 3066 3064 3063 3061 3061 3060 3058 3057 3056 3055 3055 3056 3054 3051 3046 3038 3035 3033 3029 3023 3016 3011 3005
3046 3048 3050 3052 3052 3053 3054 3054 3054 3055 3054 3054 3054 3056 3060 3061 3063 3061 3061 3063 3063 3064 3064 3063 3061 3061 3060 3062 3058 3056 3056 3055 3055 3055 3052 3053 3045 3040 3039 3035 3030 3024 3020 3013 3009
3040 3041 3043 3046 3047 3048 3048 3049 3050 3050 3050 3049 3050 3052 3057 3057 3059 3058 3059 3061 3061 3062 3062 3062 3061 3060 3061 3059 3058 3055 3055 3053 3054 3054 3050 3047 3038 3040 3036 3033 3029 3025 3021 3017 3012
3032 3032 3036 3038 3040 3043 3045 3045 3046 3046 3047 3046 3047 3048 3054 3056 3056 3056 3058 3059 3059 3060 3060 3060 3059 3058 3058 3056 3054 3053 3052 3051 3051 3052 3049 3043 3039 3038 3034 3032 3028 3025 3022 3018 3015
3026 3027 3032 3035 3036 3039 3040 3040 3041 3042 3043 3043 3043 3047 3051 3054 3054 3055 3057 3057 3057 3057 3057 3057 3057 3056 3055 3053 3052 3050 3049 3048 3048 3047 3044 3040 3036 3034 3034 3033 3030 3025 3020 3018 3013
3020 3023 3027 3028 3031 3033 3035 3035 3036 3038 3038 3038 3041 3043 3047 3051 3052 3054 3055 3055 3055 3055 3055 3055 3055 3054 3052 3051 3049 3048 3047 3046 3045 3044 3042 3039 3037 3034 3034 3032 3028 3025 3021 3017 3014